Time,TemperatureF,DewpointF,PressureIn,WindDirection,WindDirectionDegrees,WindSpeedMPH,WindSpeedGustMPH,Humidity,HourlyPrecipIn,Conditions,Clouds,dailyrainin,SoftwareType,DateUTC
2013-03-31 00:00:00,45.2,44.1,29.77,SSW,208,0.0,0.0,96,0.00,,,0.00,Wunderground v.1.13,2013-03-31 04:00:00,
2013-03-31 00:10:00,44.9,44.1,29.77,SSW,208,0.0,0.0,97,0.00,,,0.00,Wunderground v.1.13,2013-03-31 04:10:00,
2013-03-31 00:20:00,44.8,44.3,29.76,SSW,208,0.0,0.0,98,0.00,,,0.00,Wunderground v.1.13,2013-03-31 04:20:00,
2013-03-31 00:25:00,44.6,44.1,29.76,SSW,208,0.0,0.0,98,0.00,,,0.00,Wunderground v.1.13,2013-03-31 04:25:00,
2013-03-31 00:30:00,44.6,44.1,29.76,SSW,208,0.0,0.0,98,0.00,,,0.00,Wunderground v.1.13,2013-03-31 04:30:00,
2013-03-31 00:40:00,44.5,44.2,29.74,SSW,208,0.0,0.0,99,0.00,,,0.00,Wunderground v.1.13,2013-03-31 04:40:00,
2013-03-31 00:45:00,44.5,44.2,29.74,SSW,208,0.0,0.0,99,0.00,,,0.00,Wunderground v.1.13,2013-03-31 04:45:00,
2013-03-31 00:55:00,44.3,44.0,29.73,SSW,208,0.0,0.0,99,0.00,,,0.00,Wunderground v.1.13,2013-03-31 04:55:00,
2013-03-31 01:05:00,44.2,44.2,29.72,SSW,208,0.0,0.0,100,0.00,,,0.00,Wunderground v.1.13,2013-03-31 05:05:00,
2013-03-31 01:10:00,44.2,44.2,29.72,SSW,208,0.0,0.0,100,0.00,,,0.00,Wunderground v.1.13,2013-03-31 05:10:00,
2013-03-31 01:20:00,44.2,44.2,29.71,SSW,208,0.0,0.0,100,0.00,,,0.00,Wunderground v.1.13,2013-03-31 05:20:00,
2013-03-31 01:25:00,44.2,44.2,29.71,SSW,208,0.0,0.0,100,0.00,,,0.00,Wunderground v.1.13,2013-03-31 05:25:00,
2013-03-31 01:35:00,44.2,44.2,29.71,SSW,208,0.0,0.0,100,0.00,,,0.00,Wunderground v.1.13,2013-03-31 05:35:00,
2013-03-31 01:40:00,44.2,44.2,29.71,SSW,208,0.0,0.0,100,0.00,,,0.00,Wunderground v.1.13,2013-03-31 05:40:00,
2013-03-31 01:45:00,44.3,44.3,29.71,SSW,208,0.0,0.0,100,0.00,,,0.00,Wunderground v.1.13,2013-03-31 05:45:00,
2013-03-31 01:55:00,44.2,44.2,29.70,SSW,208,0.0,0.0,100,0.00,,,0.00,Wunderground v.1.13,2013-03-31 05:55:00,
2013-03-31 02:05:00,44.2,44.2,29.69,SSW,208,0.0,0.0,100,0.00,,,0.00,Wunderground v.1.13,2013-03-31 06:05:00,
2013-03-31 02:10:00,44.2,44.2,29.69,SSW,208,0.0,0.0,100,0.00,,,0.00,Wunderground v.1.13,2013-03-31 06:10:00,
2013-03-31 02:20:00,44.3,44.3,29.67,SSW,208,0.0,0.0,100,0.00,,,0.00,Wunderground v.1.13,2013-03-31 06:20:00,
2013-03-31 02:30:00,44.3,44.3,29.67,SSW,208,0.0,0.0,100,0.00,,,0.00,Wunderground v.1.13,2013-03-31 06:30:00,
2013-03-31 02:35:00,44.3,44.3,29.66,SSW,208,0.0,0.0,100,0.00,,,0.00,Wunderground v.1.13,2013-03-31 06:35:00,
2013-03-31 02:45:00,44.3,44.3,29.66,SSW,208,0.0,0.0,100,0.00,,,0.00,Wunderground v.1.13,2013-03-31 06:45:00,
2013-03-31 02:55:00,44.5,44.5,29.66,SSW,208,0.0,0.0,100,0.00,,,0.00,Wunderground v.1.13,2013-03-31 06:55:00,
2013-03-31 03:00:00,44.5,44.5,29.66,SSW,208,0.0,0.0,100,0.00,,,0.00,Wunderground v.1.13,2013-03-31 07:00:00,
2013-03-31 03:10:00,44.6,44.6,29.65,SSW,208,0.0,0.0,100,0.00,,,0.00,Wunderground v.1.13,2013-03-31 07:10:00,
2013-03-31 03:20:00,44.6,44.6,29.64,SSW,208,0.0,0.0,100,0.00,,,0.00,Wunderground v.1.13,2013-03-31 07:20:00,
2013-03-31 03:25:00,44.6,44.6,29.64,SSW,208,0.0,0.0,100,0.00,,,0.00,Wunderground v.1.13,2013-03-31 07:25:00,
2013-03-31 03:30:00,44.8,44.8,29.64,SW,227,0.0,0.0,100,0.00,,,0.00,Wunderground v.1.13,2013-03-31 07:30:00,
2013-03-31 03:40:00,45.1,45.1,29.64,WSW,237,0.0,0.0,100,0.00,,,0.00,Wunderground v.1.13,2013-03-31 07:40:00,
2013-03-31 03:50:00,45.8,45.8,29.62,WSW,241,0.0,2.0,100,0.00,,,0.01,Wunderground v.1.13,2013-03-31 07:50:00,
2013-03-31 03:55:00,46.2,46.2,29.62,South,181,0.0,2.0,100,0.08,,,0.02,Wunderground v.1.13,2013-03-31 07:55:00,
2013-03-31 04:00:00,46.7,46.7,29.62,SSE,161,0.0,1.0,100,0.08,,,0.02,Wunderground v.1.13,2013-03-31 08:00:00,
2013-03-31 04:10:00,47.0,47.0,29.62,SW,226,0.0,2.0,100,0.05,,,0.03,Wunderground v.1.13,2013-03-31 08:10:00,
2013-03-31 04:20:00,47.1,47.1,29.61,SW,217,0.0,1.0,100,0.04,,,0.04,Wunderground v.1.13,2013-03-31 08:20:00,
2013-03-31 04:30:00,47.3,47.3,29.61,SW,217,0.0,0.0,100,0.09,,,0.05,Wunderground v.1.13,2013-03-31 08:30:00,
2013-03-31 04:35:00,47.1,47.1,29.60,SW,217,0.0,0.0,100,0.05,,,0.05,Wunderground v.1.13,2013-03-31 08:35:00,
2013-03-31 04:45:00,47.3,47.3,29.60,East,90,0.0,1.0,100,0.04,,,0.06,Wunderground v.1.13,2013-03-31 08:45:00,
2013-03-31 04:50:00,47.4,47.4,29.60,North,0,0.0,1.0,100,0.07,,,0.07,Wunderground v.1.13,2013-03-31 08:50:00,
2013-03-31 05:00:00,47.4,47.4,29.60,SSE,160,0.0,1.0,100,0.10,,,0.08,Wunderground v.1.13,2013-03-31 09:00:00,
2013-03-31 05:05:00,47.4,47.4,29.60,SW,234,0.0,1.0,100,0.15,,,0.09,Wunderground v.1.13,2013-03-31 09:05:00,
2013-03-31 05:15:00,47.6,47.6,29.60,South,175,0.0,1.0,100,0.15,,,0.12,Wunderground v.1.13,2013-03-31 09:15:00,
2013-03-31 05:25:00,47.6,47.6,29.60,SE,127,0.0,6.0,100,0.13,,,0.14,Wunderground v.1.13,2013-03-31 09:25:00,
2013-03-31 05:30:00,47.6,47.6,29.60,SSW,202,0.0,1.0,100,0.10,,,0.15,Wunderground v.1.13,2013-03-31 09:30:00,
2013-03-31 05:40:00,47.4,47.4,29.59,SSE,152,0.0,0.0,100,0.05,,,0.15,Wunderground v.1.13,2013-03-31 09:40:00,
2013-03-31 05:50:00,47.4,47.4,29.60,WSW,243,0.0,1.0,100,0.00,,,0.16,Wunderground v.1.13,2013-03-31 09:50:00,
2013-03-31 06:00:00,47.4,47.4,29.60,South,184,0.0,1.0,100,0.06,,,0.17,Wunderground v.1.13,2013-03-31 10:00:00,
2013-03-31 06:05:00,47.4,47.4,29.59,SSW,199,0.0,2.0,100,0.06,,,0.17,Wunderground v.1.13,2013-03-31 10:05:00,
2013-03-31 06:10:00,47.4,47.4,29.59,SSW,200,0.0,2.0,100,0.04,,,0.17,Wunderground v.1.13,2013-03-31 10:10:00,
2013-03-31 06:15:00,47.6,47.6,29.59,SW,232,1.0,1.0,100,0.04,,,0.18,Wunderground v.1.13,2013-03-31 10:15:00,
2013-03-31 06:20:00,47.6,47.6,29.58,SE,137,1.0,1.0,100,0.08,,,0.19,Wunderground v.1.13,2013-03-31 10:20:00,
2013-03-31 06:30:00,47.6,47.6,29.58,WSW,250,0.0,3.0,100,0.05,,,0.19,Wunderground v.1.13,2013-03-31 10:30:00,
2013-03-31 06:40:00,47.6,47.6,29.58,WSW,246,0.0,2.0,100,0.00,,,0.19,Wunderground v.1.13,2013-03-31 10:40:00,
2013-03-31 06:50:00,47.7,47.7,29.58,East,99,0.0,1.0,100,0.00,,,0.19,Wunderground v.1.13,2013-03-31 10:50:00,
2013-03-31 06:55:00,47.7,47.7,29.58,East,80,0.0,1.0,100,0.00,,,0.19,Wunderground v.1.13,2013-03-31 10:55:00,
2013-03-31 07:00:00,47.6,47.6,29.58,ESE,107,0.0,1.0,100,0.00,,,0.19,Wunderground v.1.13,2013-03-31 11:00:00,
2013-03-31 07:10:00,47.6,47.6,29.58,SE,127,0.0,3.0,100,0.00,,,0.19,Wunderground v.1.13,2013-03-31 11:10:00,
2013-03-31 07:20:00,47.6,47.6,29.58,SSW,195,0.0,2.0,100,0.00,,,0.19,Wunderground v.1.13,2013-03-31 11:20:00,
2013-03-31 07:25:00,47.6,47.6,29.58,SW,224,0.0,2.0,100,0.00,,,0.19,Wunderground v.1.13,2013-03-31 11:25:00,
2013-03-31 07:35:00,47.7,47.7,29.60,East,89,1.0,1.0,100,0.00,,,0.19,Wunderground v.1.13,2013-03-31 11:35:00,
2013-03-31 07:40:00,47.9,47.9,29.60,ESE,110,1.0,1.0,100,0.00,,,0.19,Wunderground v.1.13,2013-03-31 11:40:00,
2013-03-31 07:50:00,47.9,47.9,29.60,East,100,0.0,1.0,100,0.00,,,0.19,Wunderground v.1.13,2013-03-31 11:50:00,
2013-03-31 08:00:00,47.9,47.9,29.60,WSW,256,0.0,2.0,100,0.00,,,0.19,Wunderground v.1.13,2013-03-31 12:00:00,
2013-03-31 08:05:00,48.0,48.0,29.60,SW,222,0.0,5.0,100,0.00,,,0.19,Wunderground v.1.13,2013-03-31 12:05:00,
2013-03-31 08:15:00,48.0,48.0,29.60,West,275,0.0,2.0,100,0.00,,,0.19,Wunderground v.1.13,2013-03-31 12:15:00,
2013-03-31 08:20:00,48.2,48.2,29.60,West,278,0.0,1.0,100,0.00,,,0.19,Wunderground v.1.13,2013-03-31 12:20:00,
2013-03-31 08:30:00,48.0,48.0,29.60,West,278,0.0,0.0,100,0.00,,,0.19,Wunderground v.1.13,2013-03-31 12:30:00,
2013-03-31 08:35:00,47.9,47.9,29.62,West,278,0.0,1.0,100,0.00,,,0.19,Wunderground v.1.13,2013-03-31 12:35:00,
2013-03-31 08:40:00,47.7,-99.9,29.62,North,356,0.0,2.0,255,0.00,,,0.19,Wunderground v.1.13,2013-03-31 12:40:00,
2013-03-31 08:50:00,48.0,48.0,29.62,SSW,210,0.0,2.0,100,0.00,,,0.19,Wunderground v.1.13,2013-03-31 12:50:00,
2013-03-31 09:00:00,48.2,48.2,29.62,SSW,210,0.0,0.0,100,0.00,,,0.19,Wunderground v.1.13,2013-03-31 13:00:00,
2013-03-31 09:05:00,48.3,48.3,29.62,SSW,210,0.0,0.0,100,0.00,,,0.19,Wunderground v.1.13,2013-03-31 13:05:00,
2013-03-31 09:10:00,48.5,48.5,29.62,SSW,210,0.0,1.0,100,0.00,,,0.19,Wunderground v.1.13,2013-03-31 13:10:00,
2013-03-31 09:20:00,48.9,48.9,29.62,SSW,210,0.0,0.0,100,0.00,,,0.19,Wunderground v.1.13,2013-03-31 13:20:00,
2013-03-31 09:30:00,49.5,49.5,29.62,SSW,212,0.0,1.0,100,0.00,,,0.19,Wunderground v.1.13,2013-03-31 13:30:00,
2013-03-31 09:40:00,50.1,50.1,29.62,SSW,212,0.0,0.0,100,0.00,,,0.19,Wunderground v.1.13,2013-03-31 13:40:00,
2013-03-31 09:45:00,50.2,50.2,29.62,SSW,210,0.0,0.0,100,0.00,,,0.19,Wunderground v.1.13,2013-03-31 13:45:00,
2013-03-31 09:55:00,50.4,50.4,29.62,WSW,257,0.0,1.0,100,0.00,,,0.19,Wunderground v.1.13,2013-03-31 13:55:00,
2013-03-31 10:00:00,50.7,50.7,29.62,SE,144,0.0,2.0,100,0.00,,,0.19,Wunderground v.1.13,2013-03-31 14:00:00,
2013-03-31 10:05:00,50.8,50.0,29.63,SSE,165,0.0,3.0,97,0.00,,,0.19,Wunderground v.1.13,2013-03-31 14:05:00,
2013-03-31 10:15:00,51.3,49.6,29.63,South,191,0.0,2.0,94,0.00,,,0.19,Wunderground v.1.13,2013-03-31 14:15:00,
2013-03-31 10:25:00,51.6,49.4,29.63,WSW,247,0.0,2.0,92,0.00,,,0.19,Wunderground v.1.13,2013-03-31 14:25:00,
2013-03-31 10:30:00,51.9,49.4,29.63,SSE,147,0.0,3.0,91,0.00,,,0.19,Wunderground v.1.13,2013-03-31 14:30:00,
2013-03-31 10:40:00,52.6,49.8,29.62,SSW,212,1.0,1.0,90,0.00,,,0.19,Wunderground v.1.13,2013-03-31 14:40:00,
2013-03-31 10:50:00,53.6,49.5,29.61,NE,48,0.0,1.0,86,0.00,,,0.19,Wunderground v.1.13,2013-03-31 14:50:00,
2013-03-31 10:55:00,53.9,48.9,29.61,NE,45,0.0,1.0,83,0.00,,,0.19,Wunderground v.1.13,2013-03-31 14:55:00,
2013-03-31 11:05:00,54.2,49.5,29.61,North,0,0.0,5.0,84,0.00,,,0.19,Wunderground v.1.13,2013-03-31 15:05:00,
2013-03-31 11:10:00,54.2,48.8,29.61,ESE,120,0.0,2.0,82,0.00,,,0.19,Wunderground v.1.13,2013-03-31 15:10:00,
2013-03-31 11:20:00,54.5,48.5,29.61,SW,234,0.0,3.0,80,0.00,,,0.19,Wunderground v.1.13,2013-03-31 15:20:00,
2013-03-31 11:30:00,55.0,51.5,29.61,WNW,292,0.0,5.0,88,0.00,,,0.19,Wunderground v.1.13,2013-03-31 15:30:00,
2013-03-31 11:40:00,55.1,49.0,29.61,ESE,110,0.0,0.0,80,0.00,,,0.19,Wunderground v.1.13,2013-03-31 15:40:00,
2013-03-31 11:50:00,56.0,50.3,29.60,South,169,0.0,4.0,81,0.00,,,0.19,Wunderground v.1.13,2013-03-31 15:50:00,
2013-03-31 11:55:00,56.5,49.7,29.60,SE,141,1.0,1.0,78,0.00,,,0.19,Wunderground v.1.13,2013-03-31 15:55:00,
2013-03-31 12:05:00,57.5,51.4,29.60,NW,319,0.0,1.0,80,0.00,,,0.19,Wunderground v.1.13,2013-03-31 16:05:00,
2013-03-31 12:10:00,57.8,51.7,29.60,NNW,329,0.0,1.0,80,0.00,,,0.19,Wunderground v.1.13,2013-03-31 16:10:00,
2013-03-31 12:20:00,58.9,50.3,29.59,ENE,65,0.0,1.0,73,0.00,,,0.19,Wunderground v.1.13,2013-03-31 16:20:00,
2013-03-31 12:25:00,59.0,50.0,29.59,SSE,161,0.0,6.0,72,0.00,,,0.19,Wunderground v.1.13,2013-03-31 16:25:00,
2013-03-31 12:35:00,58.7,50.1,29.60,SSW,210,0.0,1.0,73,0.00,,,0.19,Wunderground v.1.13,2013-03-31 16:35:00,
2013-03-31 12:45:00,58.0,50.1,29.60,NE,37,0.0,2.0,75,0.00,,,0.19,Wunderground v.1.13,2013-03-31 16:45:00,
2013-03-31 12:55:00,57.6,49.4,29.60,ESE,116,1.0,1.0,74,0.00,,,0.19,Wunderground v.1.13,2013-03-31 16:55:00,
2013-03-31 13:00:00,57.6,48.6,29.60,SE,127,1.0,3.0,72,0.00,,,0.19,Wunderground v.1.13,2013-03-31 17:00:00,
2013-03-31 13:05:00,58.0,50.8,29.60,SW,233,1.0,3.0,77,0.00,,,0.19,Wunderground v.1.13,2013-03-31 17:05:00,
2013-03-31 13:10:00,58.4,49.0,29.60,SSW,208,1.0,1.0,71,0.00,,,0.19,Wunderground v.1.13,2013-03-31 17:10:00,
2013-03-31 13:20:00,59.2,49.0,29.59,East,86,0.0,3.0,69,0.00,,,0.19,Wunderground v.1.13,2013-03-31 17:20:00,
2013-03-31 13:25:00,58.9,48.7,29.59,NW,312,1.0,1.0,69,0.00,,,0.19,Wunderground v.1.13,2013-03-31 17:25:00,
2013-03-31 13:35:00,58.7,48.2,29.59,SSE,157,1.0,2.0,68,0.00,,,0.19,Wunderground v.1.13,2013-03-31 17:35:00,
2013-03-31 13:40:00,58.4,47.9,29.59,WSW,240,0.0,5.0,68,0.00,,,0.19,Wunderground v.1.13,2013-03-31 17:40:00,
2013-03-31 13:50:00,58.6,48.5,29.58,South,179,0.0,5.0,69,0.00,,,0.19,Wunderground v.1.13,2013-03-31 17:50:00,
2013-03-31 13:55:00,58.7,49.7,29.58,South,181,0.0,2.0,72,0.00,,,0.19,Wunderground v.1.13,2013-03-31 17:55:00,
2013-03-31 14:05:00,58.4,50.5,29.58,SW,229,0.0,0.0,75,0.00,,,0.19,Wunderground v.1.13,2013-03-31 18:05:00,
2013-03-31 14:10:00,58.3,50.0,29.58,SSE,151,0.0,0.0,74,0.00,,,0.19,Wunderground v.1.13,2013-03-31 18:10:00,
2013-03-31 14:20:00,58.1,48.7,29.57,West,281,0.0,2.0,71,0.00,,,0.19,Wunderground v.1.13,2013-03-31 18:20:00,
2013-03-31 14:30:00,58.3,47.8,29.57,SSE,152,1.0,1.0,68,0.00,,,0.19,Wunderground v.1.13,2013-03-31 18:30:00,
2013-03-31 14:35:00,58.7,48.9,29.56,SSE,148,0.0,3.0,70,0.00,,,0.19,Wunderground v.1.13,2013-03-31 18:35:00,
2013-03-31 14:45:00,58.9,48.7,29.56,ESE,104,0.0,1.0,69,0.00,,,0.19,Wunderground v.1.13,2013-03-31 18:45:00,
2013-03-31 14:55:00,58.3,47.8,29.57,SW,220,1.0,1.0,68,0.00,,,0.19,Wunderground v.1.13,2013-03-31 18:55:00,
2013-03-31 15:05:00,58.1,48.4,29.58,SW,222,0.0,2.0,70,0.00,,,0.19,Wunderground v.1.13,2013-03-31 19:05:00,
2013-03-31 15:15:00,57.8,49.6,29.58,ESE,113,0.0,0.0,74,0.00,,,0.19,Wunderground v.1.13,2013-03-31 19:15:00,
2013-03-31 15:20:00,57.8,49.2,29.56,ESE,114,0.0,1.0,73,0.00,,,0.19,Wunderground v.1.13,2013-03-31 19:20:00,
2013-03-31 15:30:00,57.5,48.2,29.56,ESE,114,0.0,0.0,71,0.00,,,0.19,Wunderground v.1.13,2013-03-31 19:30:00,
2013-03-31 15:40:00,57.2,49.3,29.55,SW,219,0.0,1.0,75,0.00,,,0.20,Wunderground v.1.13,2013-03-31 19:40:00,
2013-03-31 15:50:00,56.2,51.4,29.56,South,172,0.0,1.0,84,0.07,,,0.21,Wunderground v.1.13,2013-03-31 19:50:00,
2013-03-31 16:00:00,55.0,51.2,29.56,SSW,209,0.0,2.0,87,0.05,,,0.21,Wunderground v.1.13,2013-03-31 20:00:00,
2013-03-31 16:05:00,54.5,51.3,29.57,SSW,209,0.0,1.0,89,0.04,,,0.22,Wunderground v.1.13,2013-03-31 20:05:00,
2013-03-31 16:15:00,53.9,51.3,29.57,SW,219,0.0,3.0,91,0.06,,,0.23,Wunderground v.1.13,2013-03-31 20:15:00,
2013-03-31 16:25:00,53.9,52.2,29.57,SSW,200,0.0,1.0,94,0.05,,,0.23,Wunderground v.1.13,2013-03-31 20:25:00,
2013-03-31 16:35:00,53.8,51.8,29.56,ESE,110,0.0,2.0,93,0.00,,,0.23,Wunderground v.1.13,2013-03-31 20:35:00,
2013-03-31 16:40:00,53.8,51.8,29.56,SW,219,0.0,1.0,93,0.00,,,0.23,Wunderground v.1.13,2013-03-31 20:40:00,
2013-03-31 16:50:00,53.5,51.8,29.54,SW,222,0.0,1.0,94,0.00,,,0.23,Wunderground v.1.13,2013-03-31 20:50:00,
2013-03-31 17:00:00,53.6,52.2,29.54,SW,219,0.0,1.0,95,0.00,,,0.23,Wunderground v.1.13,2013-03-31 21:00:00,
2013-03-31 17:10:00,53.6,51.9,29.55,SW,217,0.0,0.0,94,0.00,,,0.23,Wunderground v.1.13,2013-03-31 21:10:00,
2013-03-31 17:20:00,53.6,52.2,29.54,SW,219,0.0,0.0,95,0.00,,,0.23,Wunderground v.1.13,2013-03-31 21:20:00,
2013-03-31 17:25:00,53.6,51.9,29.54,SW,217,0.0,0.0,94,0.00,,,0.23,Wunderground v.1.13,2013-03-31 21:25:00,
2013-03-31 17:30:00,53.5,51.8,29.54,SW,217,0.0,0.0,94,0.00,,,0.23,Wunderground v.1.13,2013-03-31 21:30:00,
2013-03-31 17:40:00,53.5,51.8,29.54,SW,219,0.0,0.0,94,0.00,,,0.23,Wunderground v.1.13,2013-03-31 21:40:00,
2013-03-31 17:50:00,53.2,50.9,29.56,South,169,0.0,2.0,92,0.00,,,0.23,Wunderground v.1.13,2013-03-31 21:50:00,
2013-03-31 17:55:00,53.1,50.5,29.56,SW,229,1.0,1.0,91,0.00,,,0.23,Wunderground v.1.13,2013-03-31 21:55:00,
2013-03-31 18:05:00,52.9,49.7,29.56,NW,311,0.0,4.0,89,0.00,,,0.23,Wunderground v.1.13,2013-03-31 22:05:00,
2013-03-31 18:10:00,52.9,49.7,29.56,NW,311,1.0,5.0,89,0.00,,,0.23,Wunderground v.1.13,2013-03-31 22:10:00,
2013-03-31 18:20:00,53.1,50.5,29.56,South,179,0.0,1.0,91,0.00,,,0.00,Wunderground v.1.13,2013-03-31 22:20:00,
2013-03-31 18:30:00,53.1,49.0,29.56,South,169,0.0,5.0,86,0.00,,,0.00,Wunderground v.1.13,2013-03-31 22:30:00,
2013-03-31 18:40:00,53.1,49.0,29.56,NNW,328,1.0,1.0,86,0.00,,,0.00,Wunderground v.1.13,2013-03-31 22:40:00,
2013-03-31 18:45:00,53.2,49.1,29.56,WSW,254,0.0,5.0,86,0.00,,,0.00,Wunderground v.1.13,2013-03-31 22:45:00,
2013-03-31 18:50:00,53.2,49.1,29.55,WSW,253,0.0,1.0,86,0.00,,,0.00,Wunderground v.1.13,2013-03-31 22:50:00,
2013-03-31 18:55:00,53.2,49.1,29.55,WSW,253,0.0,0.0,86,0.00,,,0.00,Wunderground v.1.13,2013-03-31 22:55:00,
2013-03-31 19:05:00,53.1,49.3,29.55,WSW,241,0.0,1.0,87,0.00,,,0.00,Wunderground v.1.13,2013-03-31 23:05:00,
2013-03-31 19:15:00,52.9,-99.9,29.55,WSW,241,0.0,1.0,255,0.00,,,0.00,Wunderground v.1.13,2013-03-31 23:15:00,
2013-03-31 19:20:00,52.9,49.1,29.56,South,186,0.0,0.0,87,0.00,,,0.00,Wunderground v.1.13,2013-03-31 23:20:00,
2013-03-31 19:25:00,52.8,50.2,29.56,South,186,0.0,1.0,91,0.00,,,0.00,Wunderground v.1.13,2013-03-31 23:25:00,
2013-03-31 19:35:00,52.6,50.0,29.56,South,186,0.0,0.0,91,0.00,,,0.00,Wunderground v.1.13,2013-03-31 23:35:00,
2013-03-31 19:45:00,52.3,50.0,29.56,South,188,0.0,0.0,92,0.00,,,0.00,Wunderground v.1.13,2013-03-31 23:45:00,
2013-03-31 19:55:00,51.9,49.6,29.56,South,171,0.0,0.0,92,0.00,,,0.00,Wunderground v.1.13,2013-03-31 23:55:00,
2013-03-31 20:00:00,51.7,49.5,29.56,South,174,0.0,1.0,92,0.00,,,0.00,Wunderground v.1.13,2013-04-01 00:00:00,
2013-03-31 20:05:00,51.6,49.6,29.55,South,174,0.0,0.0,93,0.00,,,0.00,Wunderground v.1.13,2013-04-01 00:05:00,
2013-03-31 20:15:00,51.4,49.7,29.55,SSE,160,0.0,1.0,94,0.00,,,0.00,Wunderground v.1.13,2013-04-01 00:15:00,
2013-03-31 20:25:00,51.1,49.4,29.56,South,181,0.0,0.0,94,0.00,,,0.00,Wunderground v.1.13,2013-04-01 00:25:00,
2013-03-31 20:30:00,51.1,49.7,29.56,South,186,0.0,1.0,95,0.00,,,0.00,Wunderground v.1.13,2013-04-01 00:30:00,
2013-03-31 20:40:00,51.0,49.9,29.55,South,179,0.0,1.0,96,0.00,,,0.00,Wunderground v.1.13,2013-04-01 00:40:00,
2013-03-31 20:50:00,51.0,49.6,29.55,South,179,0.0,1.0,95,0.00,,,0.00,Wunderground v.1.13,2013-04-01 00:50:00,
2013-03-31 21:00:00,50.8,49.7,29.55,South,179,0.0,0.0,96,0.00,,,0.00,Wunderground v.1.13,2013-04-01 01:00:00,
2013-03-31 21:05:00,50.8,49.7,29.55,South,181,0.0,0.0,96,0.00,,,0.00,Wunderground v.1.13,2013-04-01 01:05:00,
2013-03-31 21:10:00,50.8,49.4,29.55,South,181,0.0,1.0,95,0.00,,,0.00,Wunderground v.1.13,2013-04-01 01:10:00,
2013-03-31 21:20:00,50.7,49.3,29.55,SSE,151,0.0,2.0,95,0.00,,,0.00,Wunderground v.1.13,2013-04-01 01:20:00,
2013-03-31 21:30:00,50.5,49.1,29.55,SSE,168,0.0,1.0,95,0.00,,,0.00,Wunderground v.1.13,2013-04-01 01:30:00,
2013-03-31 21:40:00,50.5,48.8,29.54,SW,236,0.0,1.0,94,0.00,,,0.00,Wunderground v.1.13,2013-04-01 01:40:00,
2013-03-31 21:45:00,50.7,48.7,29.54,ESE,120,0.0,2.0,93,0.00,,,0.00,Wunderground v.1.13,2013-04-01 01:45:00,
2013-03-31 21:55:00,51.0,48.5,29.54,WSW,258,0.0,2.0,91,0.00,,,0.00,Wunderground v.1.13,2013-04-01 01:55:00,
2013-03-31 22:00:00,51.1,48.9,29.54,ESE,114,0.0,2.0,92,0.00,,,0.00,Wunderground v.1.13,2013-04-01 02:00:00,
2013-03-31 22:05:00,51.1,48.6,29.54,ENE,72,1.0,1.0,91,0.00,,,0.00,Wunderground v.1.13,2013-04-01 02:05:00,
2013-03-31 22:15:00,51.1,48.6,29.54,WSW,237,0.0,2.0,91,0.00,,,0.00,Wunderground v.1.13,2013-04-01 02:15:00,
2013-03-31 22:25:00,51.1,48.3,29.55,South,191,0.0,4.0,90,0.00,,,0.00,Wunderground v.1.13,2013-04-01 02:25:00,
2013-03-31 22:30:00,51.3,48.2,29.55,SSW,202,0.0,2.0,89,0.00,,,0.00,Wunderground v.1.13,2013-04-01 02:30:00,
2013-03-31 22:40:00,51.4,48.3,29.53,SW,220,0.0,1.0,89,0.00,,,0.00,Wunderground v.1.13,2013-04-01 02:40:00,
2013-03-31 22:50:00,51.6,47.9,29.53,SW,224,1.0,1.0,87,0.00,,,0.01,Wunderground v.1.13,2013-04-01 02:50:00,
2013-03-31 23:00:00,51.9,47.5,29.53,SE,130,1.0,1.0,85,0.00,,,0.01,Wunderground v.1.13,2013-04-01 03:00:00,
2013-03-31 23:05:00,51.9,47.5,29.53,South,181,1.0,1.0,85,0.00,,,0.01,Wunderground v.1.13,2013-04-01 03:05:00,
2013-03-31 23:15:00,52.0,47.6,29.53,WSW,247,1.0,11.0,85,0.00,,,0.01,Wunderground v.1.13,2013-04-01 03:15:00,
2013-03-31 23:20:00,52.2,47.5,29.54,SSW,195,1.0,1.0,84,0.00,,,0.01,Wunderground v.1.13,2013-04-01 03:20:00,
2013-03-31 23:25:00,52.2,47.5,29.54,SSE,157,1.0,1.0,84,0.00,,,0.01,Wunderground v.1.13,2013-04-01 03:25:00,
2013-03-31 23:35:00,52.0,47.6,29.52,SSW,208,0.0,1.0,85,0.00,,,0.01,Wunderground v.1.13,2013-04-01 03:35:00,
2013-03-31 23:40:00,52.0,47.6,29.52,South,175,0.0,2.0,85,0.00,,,0.01,Wunderground v.1.13,2013-04-01 03:40:00,
2013-03-31 23:50:00,51.9,47.5,29.52,NW,320,1.0,1.0,85,0.00,,,0.01,Wunderground v.1.13,2013-04-01 03:50:00,